Location: Austin
(30.3000°N, 97.7500°W)
Time: 20:47:51
(UTC-06:00)

CBERS-1 - Pass Details

Date: 31 October 2024
Orbit: 767 x 773 km, 98.8° (Epoch: 05 November)

Event Time Altitude Azimuth Distance (km) Brightness Sun altitude
Rises 06:07:07 0° 15° (NNE) 3,251 7.4 -21.6°
Reaches altitude 10° 06:09:26 10° 17° (NNE) 2,321 6.6 -21.1°
Maximum altitude 06:14:33 74° 102° (ESE) 805 4.2 -20.0°
Drops below altitude 10° 06:19:37 10° 188° (S) 2,307 6.5 -18.9°
Sets 06:21:56 0° 190° (S) 3,230 7.2 -18.4°
